C6061 KFMH-KFMH

Flight info

Callsign C6061
Flight time 0h 35m
Altitude 1000
Route KFMH 411452N0705305W KFMH
Aircraft H60/M-SDFGRY/C

Departure

Time 2026-05-07 02:57
Airport Cape Cod Coast Guard Air Station (KFMH)

Arrival

Time 2026-05-07 03:33
Airport Cape Cod Coast Guard Air Station (KFMH)
Time Latitude Longitude Altitude Speed Heading
2026-05-07 02:45 41.66529 -70.52078 141 ft 0 kts 354°
2026-05-07 02:54 41.66535 -70.52093 142 ft 8 kts 227°
2026-05-07 02:55 41.66451 -70.52128 142 ft 12 kts 227°
2026-05-07 02:55 41.66436 -70.52245 144 ft 17 kts 263°
2026-05-07 02:55 41.66421 -70.52453 146 ft 27 kts 266°
2026-05-07 02:55 41.66406 -70.52661 148 ft 17 kts 268°
2026-05-07 02:56 41.66405 -70.52721 148 ft 5 kts 269°
2026-05-07 02:56 41.66403 -70.52731 148 ft 0 kts 229°
2026-05-07 02:56 41.66313 -70.52808 223 ft 53 kts 219°
2026-05-07 02:57 41.66460 -70.53407 463 ft 99 kts 292°
2026-05-07 02:57 41.66270 -70.54212 559 ft 97 kts 229°
2026-05-07 02:57 41.65812 -70.54925 799 ft 105 kts 231°
2026-05-07 02:57 41.65340 -70.55739 842 ft 115 kts 234°
2026-05-07 02:58 41.64872 -70.56621 787 ft 119 kts 235°
2026-05-07 02:58 41.64399 -70.57568 540 ft 124 kts 235°
2026-05-07 02:58 41.63962 -70.58489 841 ft 108 kts 239°
2026-05-07 02:58 41.63593 -70.59310 1312 ft 102 kts 239°
2026-05-07 02:59 41.63196 -70.60067 1301 ft 89 kts 229°
2026-05-07 02:59 41.62684 -70.60695 1277 ft 97 kts 227°
2026-05-07 02:59 41.62100 -70.61281 1262 ft 98 kts 220°
2026-05-07 02:59 41.61450 -70.61645 1251 ft 111 kts 207°
2026-05-07 03:00 41.60727 -70.61976 1242 ft 111 kts 207°
2026-05-07 03:00 41.60005 -70.62321 1248 ft 111 kts 207°
2026-05-07 03:00 41.59301 -70.62667 1252 ft 107 kts 207°
2026-05-07 03:00 41.58605 -70.63010 1254 ft 106 kts 207°
2026-05-07 03:01 41.57909 -70.63320 1258 ft 106 kts 207°
2026-05-07 03:01 41.57200 -70.63631 1255 ft 111 kts 207°
2026-05-07 03:01 41.56472 -70.63948 1263 ft 107 kts 207°
2026-05-07 03:01 41.55765 -70.64264 1263 ft 108 kts 207°
2026-05-07 03:02 41.55051 -70.64573 1254 ft 106 kts 207°
2026-05-07 03:02 41.54352 -70.64878 1260 ft 106 kts 207°
2026-05-07 03:02 41.53624 -70.65194 1255 ft 111 kts 207°
2026-05-07 03:02 41.52911 -70.65503 1256 ft 107 kts 207°
2026-05-07 03:03 41.52201 -70.65806 1249 ft 107 kts 208°
2026-05-07 03:03 41.51521 -70.66156 650 ft 100 kts 208°
2026-05-07 03:03 41.51090 -70.66420 399 ft 112 kts 208°
2026-05-07 03:03 41.50426 -70.66848 226 ft 107 kts 208°
2026-05-07 03:04 41.49764 -70.67253 258 ft 104 kts 208°
2026-05-07 03:04 41.48872 -70.67803 265 ft 109 kts 208°
2026-05-07 03:04 41.48203 -70.68298 246 ft 115 kts 213°
2026-05-07 03:04 41.47552 -70.68802 262 ft 105 kts 210°
2026-05-07 03:05 41.47371 -70.68925 287 ft 110 kts 209°
2026-05-07 03:05 41.46968 -70.69210 247 ft 109 kts 209°
2026-05-07 03:05 41.46511 -70.69530 251 ft 117 kts 210°
2026-05-07 03:06 41.46271 -70.69694 339 ft 110 kts 209°
2026-05-07 03:06 41.45587 -70.70028 279 ft 105 kts 192°
2026-05-07 03:06 41.45504 -70.70050 266 ft 109 kts 192°
2026-05-07 03:07 41.45127 -70.70156 276 ft 112 kts 193°
2026-05-07 03:07 41.44409 -70.70405 272 ft 112 kts 204°
2026-05-07 03:07 41.43749 -70.70911 272 ft 107 kts 212°
2026-05-07 03:07 41.43094 -70.71461 264 ft 122 kts 218°
2026-05-07 03:08 41.42461 -70.72308 259 ft 133 kts 226°
2026-05-07 03:08 41.41829 -70.73195 258 ft 125 kts 226°
2026-05-07 03:08 41.41305 -70.73944 273 ft 103 kts 226°
2026-05-07 03:08 41.40821 -70.74702 267 ft 106 kts 228°
2026-05-07 03:09 41.40303 -70.75453 266 ft 108 kts 228°
2026-05-07 03:09 41.39797 -70.76221 271 ft 105 kts 228°
2026-05-07 03:09 41.39316 -70.76987 272 ft 107 kts 228°
2026-05-07 03:09 41.38838 -70.77773 276 ft 105 kts 231°
2026-05-07 03:10 41.38378 -70.78592 267 ft 113 kts 231°
2026-05-07 03:10 41.37894 -70.79418 264 ft 111 kts 231°
2026-05-07 03:10 41.37405 -70.80224 268 ft 111 kts 231°
2026-05-07 03:10 41.36950 -70.81033 269 ft 106 kts 231°
2026-05-07 03:11 41.36486 -70.81826 271 ft 102 kts 231°
2026-05-07 03:11 41.36071 -70.82657 271 ft 106 kts 235°
2026-05-07 03:11 41.35634 -70.83543 267 ft 117 kts 235°
2026-05-07 03:11 41.35207 -70.84447 273 ft 108 kts 232°
2026-05-07 03:12 41.34786 -70.85259 269 ft 103 kts 232°
2026-05-07 03:12 41.34362 -70.86048 266 ft 105 kts 232°
2026-05-07 03:12 41.33936 -70.86858 266 ft 113 kts 232°
2026-05-07 03:12 41.33492 -70.87689 263 ft 108 kts 232°
2026-05-07 03:13 41.33052 -70.88502 264 ft 109 kts 232°
2026-05-07 03:13 41.32608 -70.89318 266 ft 111 kts 232°
2026-05-07 03:13 41.32154 -70.90036 267 ft 98 kts 216°
2026-05-07 03:13 41.31520 -70.90503 276 ft 108 kts 212°
2026-05-07 03:14 41.30859 -70.91005 270 ft 106 kts 212°
2026-05-07 03:14 41.30225 -70.91493 267 ft 103 kts 212°
2026-05-07 03:14 41.28946 -70.92465 269 ft 103 kts 212°
2026-05-07 03:15 41.28310 -70.92939 270 ft 104 kts 212°
2026-05-07 03:15 41.27651 -70.93427 269 ft 111 kts 212°
2026-05-07 03:15 41.27007 -70.93893 268 ft 103 kts 212°
2026-05-07 03:15 41.26350 -70.94371 271 ft 106 kts 212°
2026-05-07 03:16 41.25745 -70.94752 516 ft 93 kts 211°
2026-05-07 03:16 41.25154 -70.95140 600 ft 85 kts 210°
2026-05-07 03:16 41.24694 -70.95350 594 ft 52 kts 204°
2026-05-07 03:16 41.24494 -70.95439 570 ft 10 kts 204°
2026-05-07 03:17 41.24493 -70.95453 573 ft 3 kts 204°
2026-05-07 03:17 41.24511 -70.95442 578 ft 1 kts 204°
2026-05-07 03:17 41.24387 -70.95554 593 ft 39 kts 211°
2026-05-07 03:17 41.23988 -70.95974 596 ft 94 kts 214°
2026-05-07 03:18 41.23402 -70.96425 583 ft 94 kts 213°
2026-05-07 03:18 41.22838 -70.96853 581 ft 95 kts 213°
2026-05-07 03:18 41.22267 -70.97306 615 ft 85 kts 214°
2026-05-07 03:18 41.21801 -70.97492 845 ft 62 kts 206°
2026-05-07 03:19 41.21389 -70.97753 809 ft 65 kts 213°
2026-05-07 03:19 41.21106 -70.98094 808 ft 35 kts 216°
2026-05-07 03:19 41.21046 -70.98151 599 ft 6 kts 208°
2026-05-07 03:19 41.21025 -70.98164 627 ft 12 kts 207°
2026-05-07 03:20 41.20946 -70.98209 595 ft 38 kts 211°
2026-05-07 03:20 41.20711 -70.98513 333 ft 41 kts 219°
2026-05-07 03:21 41.20737 -70.98471 304 ft 13 kts 216°
2026-05-07 03:21 41.20704 -70.98452 224 ft 9 kts 212°
2026-05-07 03:21 41.20669 -70.98478 172 ft 5 kts 213°
2026-05-07 03:21 41.20644 -70.98518 151 ft 4 kts 217°
2026-05-07 03:22 41.20643 -70.98531 104 ft 1 kts 213°
2026-05-07 03:22 41.20623 -70.98525 103 ft 1 kts 212°
2026-05-07 03:22 41.20623 -70.98526 95 ft 1 kts 212°
2026-05-07 03:22 41.20627 -70.98521 123 ft 2 kts 212°
2026-05-07 03:23 41.20626 -70.98518 130 ft 2 kts 213°
2026-05-07 03:23 41.20636 -70.98518 149 ft 5 kts 212°
2026-05-07 03:23 41.20723 -70.98412 270 ft 37 kts 117°
2026-05-07 03:23 41.21216 -70.97988 172 ft 125 kts 33°
2026-05-07 03:24 41.22101 -70.97174 433 ft 179 kts 37°
2026-05-07 03:24 41.23115 -70.96160 456 ft 179 kts 38°
2026-05-07 03:24 41.24117 -70.95170 419 ft 178 kts 38°
2026-05-07 03:24 41.25113 -70.94169 411 ft 180 kts 38°
2026-05-07 03:25 41.26096 -70.93158 415 ft 180 kts 38°
2026-05-07 03:25 41.27083 -70.92137 432 ft 180 kts 38°
2026-05-07 03:25 41.28059 -70.91121 465 ft 178 kts 38°
2026-05-07 03:25 41.29045 -70.90095 426 ft 188 kts 38°
2026-05-07 03:26 41.30181 -70.88923 291 ft 218 kts 38°
2026-05-07 03:26 41.31268 -70.87795 295 ft 188 kts 38°
2026-05-07 03:26 41.32295 -70.86758 279 ft 183 kts 38°
2026-05-07 03:26 41.33302 -70.85735 275 ft 180 kts 38°
2026-05-07 03:27 41.34287 -70.84738 291 ft 178 kts 38°
2026-05-07 03:27 41.35261 -70.83762 302 ft 176 kts 38°
2026-05-07 03:27 41.36231 -70.82763 315 ft 175 kts 38°
2026-05-07 03:27 41.37168 -70.81765 325 ft 172 kts 38°
2026-05-07 03:28 41.38123 -70.80768 320 ft 176 kts 38°
2026-05-07 03:28 41.39085 -70.79766 311 ft 175 kts 38°
2026-05-07 03:28 41.40033 -70.78796 314 ft 178 kts 38°
2026-05-07 03:28 41.41129 -70.77636 268 ft 216 kts 38°
2026-05-07 03:29 41.42323 -70.76389 351 ft 219 kts 38°
2026-05-07 03:29 41.43511 -70.75120 317 ft 226 kts 38°
2026-05-07 03:29 41.44768 -70.73808 173 ft 213 kts 38°
2026-05-07 03:29 41.45727 -70.72823 1015 ft 151 kts 38°
2026-05-07 03:30 41.46599 -70.71822 1481 ft 188 kts 38°
2026-05-07 03:30 41.47681 -70.70581 1232 ft 211 kts 38°
2026-05-07 03:30 41.48752 -70.69383 712 ft 186 kts 38°
2026-05-07 03:30 41.49678 -70.68404 971 ft 174 kts 38°
2026-05-07 03:31 41.50643 -70.67385 598 ft 174 kts 38°
2026-05-07 03:31 41.51581 -70.66453 472 ft 166 kts 37°
2026-05-07 03:31 41.52449 -70.65566 524 ft 131 kts 36°
2026-05-07 03:31 41.53123 -70.64974 478 ft 125 kts 27°
2026-05-07 03:32 41.53973 -70.64740 377 ft 127 kts
2026-05-07 03:32 41.54875 -70.64543 452 ft 129 kts 15°
2026-05-07 03:32 41.55528 -70.63937 657 ft 115 kts 49°
2026-05-07 03:32 41.56063 -70.63107 560 ft 116 kts 41°
2026-05-07 03:33 41.56595 -70.62605 522 ft 79 kts 41°
2026-05-07 03:33 41.56663 -70.62305 361 ft 21 kts 203°
2026-05-07 03:33 41.56566 -70.62421 228 ft 10 kts 206°
2026-05-07 03:33 41.56522 -70.62457 130 ft 5 kts 201°
2026-05-07 03:34 41.56516 -70.62464 112 ft 0 kts 195°
2026-05-07 03:37 41.56510 -70.62292 262 ft 50 kts 86°
2026-05-07 03:37 41.56756 -70.61417 464 ft 145 kts 64°
2026-05-07 03:37 41.57533 -70.60346 455 ft 168 kts 42°
2026-05-07 03:37 41.58456 -70.59406 775 ft 166 kts 34°
2026-05-07 03:38 41.59451 -70.58518 687 ft 179 kts 32°
2026-05-07 03:38 41.60513 -70.57665 782 ft 173 kts 25°
2026-05-07 03:38 41.61577 -70.56795 828 ft 190 kts 35°
2026-05-07 03:38 41.62482 -70.55461 586 ft 188 kts 44°
2026-05-07 03:39 41.63575 -70.54576 765 ft 185 kts 25°
2026-05-07 03:39 41.64616 -70.53642 621 ft 171 kts 44°
2026-05-07 03:39 41.65370 -70.52677 371 ft 130 kts 43°
2026-05-07 03:39 41.65950 -70.52001 369 ft 88 kts 39°
2026-05-07 03:40 41.66389 -70.51504 222 ft 60 kts 323°
2026-05-07 03:40 41.66479 -70.51517 147 ft 13 kts 271°
2026-05-07 03:40 41.66479 -70.51618 138 ft 19 kts 267°
2026-05-07 03:40 41.66470 -70.51798 139 ft 17 kts 265°
2026-05-07 03:41 41.66461 -70.51932 140 ft 16 kts 262°
2026-05-07 03:41 41.66460 -70.52106 142 ft 16 kts 295°
2026-05-07 03:41 41.66472 -70.52144 142 ft 0 kts 289°